Location: Paris
(48.6709°N, 2.3750°E)
Time: 17:44:46
(UTC+02:00)

STARS - Pass Details

Date: 07 July 2022
Orbit: 620 x 637 km, 98.2° (Epoch: 06 August)

Event Time Altitude Azimuth Distance (km) Brightness Sun altitude
Rises 00:39:42 0° 14° (NNE) 2,929 ? -16.7°
Reaches altitude 10° 00:41:54 10° 15° (NNE) 2,014 ? -16.8°
Maximum altitude 00:46:18 84° 105° (ESE) 635 ? -17.1°
Enters shadow 00:48:24 30° 191° (S) 1,114 ? -17.2°
